Temperature
17 17 17 17 18 18 20 22 23 23 23 22 22 22 21 20 19 18 16 16 16 16 17 16 16 16 16 16 16 16 16 16 15 15 15 15 15 15 15 15 15 15 15 15 15 15 15 15 15
17 17 17 18 18 18 20 22 22 22 21 21 21 21 21 19 17 16 16 16 15 16 16 16 16 16 16 16 16 16 16 15 15 15 15 15 15 15 15 15 15 15 15 15 15 15 15 15 15
17 16 17 18 19 19 21 22 21 21 21 21 20 20 19 17 16 15 15 15 15 15 16 16 16 16 16 16 16 16 16 15 15 15 15 15 15 15 15 15 15 15 15 15 15 15 15 15 15
16 17 18 18 19 20 21 21 20 20 20 20 20 19 17 16 15 15 15 15 15 15 15 15 15 15 15 16 15 15 15 15 15 15 15 15 15 15 15 15 15 15 15 15 15 15 14 14 14
16 17 17 18 19 20 21 21 21 20 20 20 19 18 16 15 15 15 15 15 15 14 15 15 15 15 15 15 15 15 15 15 15 15 15 15 15 15 14 14 14 14 15 15 14 14 14 14 14
16 18 17 18 19 20 20 20 20 20 19 19 19 18 15 14 15 15 15 14 14 14 14 15 15 15 15 15 15 15 15 15 15 15 15 15 15 14 14 14 14 14 14 14 14 14 14 14 14
17 17 17 18 19 19 19 19 19 18 18 18 18 17 15 14 14 14 14 14 14 14 14 14 14 14 15 15 15 15 15 15 15 15 15 14 14 14 14 14 14 14 14 14 14 14 14 14 14
16 16 17 18 18 18 19 18 18 18 17 17 17 16 14 13 13 13 13 13 13 13 14 14 14 14 14 14 14 14 14 14 14 14 14 14 14 14 14 14 14 14 14 13 13 13 13 13 13
16 15 16 17 17 18 18 17 17 16 16 16 15 14 14 13 13 13 13 13 13 13 13 13 14 14 14 14 14 14 14 14 14 14 14 14 14 14 14 14 13 13 13 13 13 13 13 13 13
15 14 15 16 17 17 17 17 16 16 15 15 14 13 13 13 13 12 12 12 12 13 13 13 13 13 14 14 14 14 14 14 14 14 14 14 13 13 13 13 13 13 13 13 13 13 13 13 13
15 14 16 16 15 15 16 16 16 15 14 14 14 13 13 12 12 12 12 12 12 12 12 12 13 13 13 13 13 13 13 13 13 13 13 13 13 13 13 13 13 13 13 13 13 12 12 12 12
15 15 15 15 14 14 15 15 14 14 14 14 14 13 13 12 12 12 12 11 11 12 12 12 13 13 13 13 13 13 13 13 13 13 13 13 13 13 13 13 13 13 13 12 12 12 12 12 12
14 14 15 14 14 14 14 14 14 13 13 13 13 12 12 12 11 11 11 11 11 11 12 12 12 12 12 13 13 13 12 12 12 13 13 13 13 12 12 12 12 12 12 12 12 12 12 12 12
14 14 14 14 14 14 13 13 13 13 13 13 12 12 12 11 11 11 11 11 11 11 11 11 12 12 12 12 12 12 12 12 12 12 12 12 12 12 12 12 12 12 12 12 12 11 11 11 11
13 13 13 13 14 13 13 12 12 13 13 13 12 12 11 11 11 10 10 10 10 10 11 11 11 11 12 12 12 12 12 12 12 12 12 12 12 12 12 11 12 12 12 12 11 11 11 11 11
13 13 12 13 13 13 12 11 13 13 13 12 12 12 11 11 11 10 10 10 10 10 10 10 10 11 11 11 11 11 11 11 11 11 11 11 11 11 11 11 11 11 11 11 11 11 11 11 11
12 12 12 13 13 13 12 11 12 13 13 13 12 12 11 11 10 10 10 9 9 9 10 10 10 10 11 11 11 11 11 11 11 11 11 11 11 11 11 11 11 11 11 11 11 11 11 11 10
12 12 13 13 13 13 12 12 12 13 13 13 12 12 11 11 10 10 10 9 9 9 9 9 10 10 10 10 10 10 10 10 10 10 10 10 10 10 10 10 10 10 10 10 10 10 10 10 10
12 12 12 12 13 12 12 12 12 12 12 12 12 12 11 11 10 10 9 9 9 9 9 9 9 9 9 9 10 10 10 10 10 10 10 10 10 10 10 10 10 10 10 9 9 9 9 9 9
11 11 11 12 12 12 11 11 12 12 11 12 12 11 11 10 9 9 9 8 8 9 9 8 9 9 9 9 9 9 9 9 9 9 9 10 10 10 10 10 9 9 9 9 9 9 9 9 9
10 10 10 10 11 11 10 10 11 12 12 12 11 11 10 10 9 8 8 8 8 8 8 8 8 8 8 9 9 9 9 9 9 9 9 9 9 9 9 9 9 9 9 8 8 8 8 8 8
9 10 10 10 9 9 10 9 11 12 11 11 11 11 10 9 9 8 8 7 7 7 7 8 8 8 8 8 8 8 8 8 8 8 8 8 8 8 8 8 8 8 8 8 8 8 8 7 7
9 10 9 9 9 8 9 8 9 11 11 10 10 10 10 9 8 8 7 7 7 7 7 7 7 7 7 7 7 8 7 7 7 7 7 8 8 8 8 8 8 8 8 7 7 7 7 7 7
9 9 9 9 8 7 9 9 9 10 10 10 9 10 9 9 8 8 7 6 6 6 7 7 6 6 7 7 7 7 7 7 7 7 7 7 7 7 7 7 7 7 7 7 7 7 6 6 6
8 7 7 7 7 7 10 9 9 10 10 9 9 9 9 8 8 7 6 6 6 6 6 6 6 6 6 6 6 6 6 6 6 6 6 6 7 7 7 6 6 6 6 6 6 6 6 6 6
7 7 7 7 7 8 9 8 8 9 9 9 9 8 8 7 7 6 6 5 5 5 5 5 5 5 5 6 6 6 6 6 6 6 6 6 6 6 6 6 6 6 5 5 5 5 5 5 5
7 7 8 7 7 7 8 9 8 8 8 8 8 7 7 6 6 5 5 4 4 4 4 5 5 5 5 5 5 5 5 5 5 5 5 5 5 5 5 5 5 5 5 5 5 5 5 5 5
7 7 6 6 6 7 8 8 7 6 7 6 6 6 6 6 5 5 4 4 4 4 4 4 4 4 5 4 4 4 5 5 5 5 4 4 4 4 4 4 4 4 4 4 4 4 4 4 4
6 6 6 6 6 6 7 7 7 6 6 6 5 5 5 5 5 4 4 4 3 3 3 4 4 4 4 4 4 4 4 4 4 4 4 4 4 4 4 4 4 4 4 4 4 4 4 4 4
5 5 5 5 5 5 5 6 7 6 6 6 5 5 5 4 4 4 3 3 3 3 3 3 3 3 3 3 3 3 4 4 3 3 3 3 3 3 3 3 3 3 3 3 3 3 3 3 3
Wind_Speed
13 12 6 3 3 5 7 5 1 2 3 5 6 4 4 5 5 6 2 6 7 8 10 9 8 8 8 9 10 10 10 10 11 11 11 11 11 12 12 12 12 12 13 13 13 13 13 13 13
11 8 4 3 4 6 6 4 1 3 4 4 4 3 3 5 6 6 3 5 5 8 10 8 9 8 8 9 9 9 9 10 10 11 11 10 11 11 11 11 11 11 12 12 13 12 12 12 12
9 7 4 4 5 6 3 2 4 5 4 2 2 4 4 4 5 3 3 3 4 7 10 9 9 8 8 9 9 9 9 10 10 10 10 10 10 10 10 11 11 11 11 11 11 11 11 11 11
5 3 4 5 8 4 2 4 4 3 3 2 2 4 4 6 4 4 3 3 5 7 10 9 8 8 8 9 9 9 9 10 10 10 10 10 9 10 10 10 10 11 11 11 11 11 10 10 9
4 4 5 6 8 4 1 4 2 1 2 1 2 2 4 6 7 6 4 4 5 6 9 9 8 8 8 8 8 8 9 9 10 10 9 9 9 9 9 10 10 10 10 10 10 9 9 9 7
3 4 5 7 7 4 1 2 1 1 1 2 1 0 4 6 6 4 4 4 5 6 7 8 8 7 7 7 8 8 8 8 9 9 9 9 9 9 9 9 9 9 9 9 9 8 8 7 6
3 4 6 7 4 3 0 3 1 1 1 2 2 1 4 5 4 3 3 4 5 6 6 6 6 6 6 7 7 8 8 8 8 8 8 8 9 8 8 8 8 8 8 7 8 7 7 6 4
4 3 5 6 5 3 1 2 3 3 2 3 3 1 2 2 3 3 3 4 4 5 5 4 4 5 5 6 7 8 8 8 7 8 8 8 8 8 8 8 8 7 7 6 6 6 5 4 3
4 3 4 4 3 1 3 1 3 3 3 4 4 5 5 6 4 4 4 3 3 4 3 3 3 4 5 5 6 7 8 7 7 7 8 8 6 7 7 8 7 7 6 5 5 5 4 3 2
2 3 4 3 4 2 2 2 2 1 1 1 2 5 6 5 4 3 3 2 2 3 2 2 3 3 4 4 5 5 5 6 6 6 6 6 6 6 7 8 7 6 5 5 4 4 4 3 2
2 3 2 2 4 4 2 2 1 2 2 0 1 3 4 4 3 2 2 2 1 1 2 2 2 3 3 3 3 3 4 4 4 5 4 4 5 6 6 6 6 5 5 3 3 2 2 2 1
3 2 3 1 2 2 2 2 1 2 1 3 2 3 4 4 3 1 1 2 1 2 2 2 2 3 3 3 3 3 3 3 3 4 4 4 4 3 4 4 4 4 3 2 1 2 1 1 1
5 3 2 1 1 1 2 2 2 2 1 1 2 2 3 3 2 1 1 2 1 1 2 2 2 2 2 2 2 3 3 3 4 5 4 4 3 2 3 3 3 3 3 2 1 1 1 1 0
1 2 3 3 3 2 2 3 3 4 3 2 2 2 2 2 2 1 1 1 2 1 1 1 2 3 2 2 3 3 3 4 4 5 5 5 4 3 2 2 2 2 2 1 0 0 0 0 0
2 3 4 4 4 3 2 4 6 5 3 3 3 3 3 2 1 1 1 1 1 2 2 2 2 3 3 3 3 3 3 4 4 5 5 5 5 4 3 2 2 2 2 1 1 1 1 0 1
4 4 4 3 4 3 3 5 4 5 5 4 3 4 3 2 2 1 1 1 1 2 2 2 2 3 3 2 3 3 4 4 4 5 4 4 5 4 3 2 2 2 2 1 0 0 1 1 1
5 5 4 3 5 3 5 4 2 3 4 4 3 3 3 3 2 1 2 1 1 2 3 3 3 2 2 2 3 4 4 4 5 5 4 3 4 4 4 2 2 2 2 1 1 1 0 0 1
4 4 4 4 4 3 5 5 4 3 2 3 2 2 2 3 3 2 2 2 2 2 3 3 3 3 2 2 2 3 3 3 4 4 3 3 4 4 4 3 3 2 1 1 1 1 1 0 1
5 5 5 3 0 3 6 6 5 4 4 3 3 2 2 2 3 3 3 3 3 3 3 2 3 2 2 1 1 2 2 3 3 3 3 3 4 4 3 2 2 2 1 1 1 1 1 1 1
5 6 5 3 1 3 5 7 7 6 6 5 4 3 2 1 2 3 3 4 3 2 2 2 2 2 2 1 1 1 2 3 3 2 3 3 3 3 2 2 1 1 1 1 1 1 0 1 1
5 4 4 4 4 4 5 7 7 7 6 5 4 4 3 2 3 2 3 3 3 2 2 2 2 2 2 3 2 2 2 2 2 2 2 2 3 3 2 2 1 1 1 0 1 1 0 1 1
4 2 4 5 3 3 3 4 4 4 6 6 4 3 3 3 3 3 3 3 2 2 2 2 2 2 2 2 2 3 2 2 1 1 2 1 2 2 2 1 1 1 1 1 1 1 0 1 1
2 3 4 5 5 5 5 4 5 4 4 4 3 3 3 3 3 3 3 3 3 3 2 2 2 2 2 2 2 2 1 1 1 1 1 1 1 2 2 1 0 1 1 1 1 1 1 1 1
2 2 4 5 3 5 7 6 5 3 4 3 2 2 2 3 3 4 4 3 3 3 3 2 2 2 1 1 1 2 2 1 1 1 1 1 1 1 1 1 1 1 1 1 1 2 1 1 1
1 0 1 2 3 5 3 5 4 1 3 3 2 1 2 3 3 3 4 3 2 3 2 1 1 1 1 1 1 1 1 1 1 0 1 0 0 0 1 1 1 1 2 2 2 2 2 2 1
3 3 2 3 3 3 2 4 1 3 4 4 4 4 4 4 3 3 3 3 2 2 1 1 0 0 1 1 0 0 1 1 1 1 1 1 1 1 1 1 1 2 2 3 2 2 3 2 3
2 3 2 2 4 4 4 3 1 2 3 3 4 4 4 3 3 3 3 2 2 2 1 1 1 1 1 1 0 0 0 0 0 1 1 1 1 1 1 1 1 2 2 2 2 3 3 3 4
2 2 1 2 2 4 5 5 3 3 2 1 2 2 3 3 3 3 2 2 2 1 1 1 0 1 1 1 1 1 1 1 1 1 1 1 1 1 1 1 2 2 2 3 3 3 3 3 3
2 2 2 3 3 3 4 3 1 3 2 0 1 1 2 2 2 2 2 2 1 1 0 0 0 0 1 1 1 1 1 1 1 1 2 2 2 1 2 2 2 2 2 2 2 3 3 3 3
2 2 2 3 4 4 4 4 2 3 2 1 1 1 1 1 2 2 2 2 2 1 1 0 0 1 1 1 1 2 2 1 2 2 2 2 2 2 2 2 2 2 3 3 3 3 3 4 4
Wind_Direction
303 282 260 256 241 234 241 247 110 66 39 25 24 14 38 33 29 100 120 73 93 110 117 115 114 112 113 116 117 115 120 119 116 112 107 106 105 103 100 96 94 92 90 89 88 90 90 89 89
293 285 265 239 241 237 239 220 140 63 58 37 28 17 47 64 66 92 80 57 89 110 115 113 114 112 115 120 122 120 122 123 120 116 112 110 110 107 104 100 97 96 94 91 90 91 91 89 88
276 265 254 234 236 243 273 64 93 76 78 63 53 32 27 56 66 72 71 67 81 103 107 112 112 112 116 121 123 125 124 125 123 119 117 114 112 111 109 106 102 100 97 95 94 93 93 91 88
271 242 243 246 248 256 298 52 65 86 84 69 81 91 74 44 40 54 67 85 85 100 104 113 112 115 118 122 124 125 124 129 126 121 119 117 115 112 110 108 106 103 101 99 98 97 95 93 90
242 246 229 236 243 254 355 49 47 111 126 106 85 84 92 58 58 63 58 78 90 98 103 119 118 116 119 125 128 128 127 132 130 125 124 120 116 113 113 112 110 107 105 104 102 100 98 96 93
248 244 236 234 230 228 158 66 4 329 92 65 62 53 103 79 57 56 53 66 89 97 109 121 122 120 122 128 132 130 130 134 133 128 128 124 118 116 117 120 117 113 110 108 106 106 103 100 96
262 256 252 260 246 223 132 73 36 295 94 59 348 65 111 75 53 50 55 62 75 92 102 113 122 124 129 131 133 133 129 131 132 130 128 124 119 117 117 118 119 117 115 114 112 111 109 107 100
287 284 252 257 257 272 59 58 25 356 25 50 17 38 101 96 73 78 65 62 65 72 89 103 115 121 120 125 131 135 131 131 134 134 132 130 127 123 119 116 116 117 121 123 121 118 117 116 116
274 257 253 271 282 320 85 85 64 27 36 50 47 37 70 107 105 97 75 54 59 57 71 91 105 105 116 127 132 136 138 135 136 133 132 133 131 135 132 125 122 121 122 128 133 136 136 136 158
243 239 249 324 352 1 52 56 93 94 63 80 65 68 90 104 104 104 93 69 60 53 53 71 87 94 96 115 123 136 140 137 136 136 136 137 130 130 127 128 127 124 122 125 138 152 157 164 185
224 235 263 339 10 359 353 11 48 199 254 254 138 117 114 114 107 111 115 107 93 79 51 47 57 82 86 87 113 116 120 128 126 123 132 126 109 106 108 110 115 119 118 114 132 152 179 180 192
228 248 278 320 28 11 325 317 328 273 301 30 74 125 127 128 131 133 104 76 61 62 60 44 41 68 77 83 85 93 105 112 109 112 124 113 105 105 110 111 126 129 130 132 163 207 216 194 217
224 239 258 264 289 231 280 289 283 267 274 45 79 108 131 133 138 151 117 92 70 53 58 52 48 58 69 95 92 86 75 90 100 94 85 87 92 110 113 116 116 118 118 140 208 213 220 211 248
222 237 249 238 236 214 228 263 256 251 242 190 159 164 157 158 160 138 83 78 82 79 62 52 68 67 71 81 89 90 77 78 78 86 79 85 83 85 95 98 101 91 101 116 196 354 235 250 245
237 239 237 223 217 209 212 260 234 219 208 200 193 183 177 165 150 123 93 89 100 102 81 50 80 77 85 91 97 93 84 82 80 80 78 81 81 84 85 85 77 66 73 74 29 33 26 23 350
221 231 231 199 200 195 202 256 221 186 191 195 199 188 170 157 142 119 108 98 95 106 99 82 74 73 75 93 100 91 88 93 88 81 73 67 69 76 84 82 66 56 69 61 92 74 20 354 316
213 235 231 198 182 187 211 245 222 191 190 194 192 183 170 156 143 124 119 116 108 107 101 95 84 85 77 86 114 107 97 93 89 87 79 78 74 77 79 78 54 48 63 53 31 8 22 261 306
234 250 256 237 176 199 230 239 229 217 215 214 196 182 172 164 150 128 107 99 96 98 95 92 88 78 69 82 106 112 105 104 94 92 95 92 85 87 80 76 65 43 49 38 42 14 333 215 250
294 281 272 274 54 238 250 258 247 223 217 218 201 199 176 148 125 115 106 92 74 61 72 86 84 76 73 73 107 133 134 131 122 101 103 105 98 95 89 73 73 44 43 13 347 348 321 348 10
290 287 290 295 262 259 264 269 255 222 215 208 201 190 164 130 102 95 92 87 90 77 65 69 86 87 78 71 85 132 137 132 132 108 94 101 103 102 108 101 117 88 11 7 346 359 354 313 72
266 274 295 301 311 267 278 272 237 215 205 201 189 164 156 161 150 122 103 89 85 77 61 67 60 81 78 70 69 85 86 93 100 113 127 113 123 126 116 123 132 147 128 278 293 301 113 237 254
267 301 295 290 290 262 226 276 247 202 197 193 190 177 170 154 138 132 120 113 98 77 63 70 65 66 83 96 103 114 131 145 145 151 153 146 122 121 111 91 118 153 167 213 264 298 294 162 229
296 308 286 275 272 277 235 246 258 196 210 191 173 163 149 137 141 133 119 118 108 92 72 67 74 64 74 111 112 116 94 108 101 110 120 141 133 108 96 79 4 185 189 207 240 278 279 197 169
293 286 267 255 257 262 227 219 258 214 202 167 133 117 113 113 119 122 114 104 93 86 74 60 63 60 60 112 128 124 113 80 85 107 148 168 135 114 71 354 312 257 218 219 243 258 241 246 234
242 186 297 234 222 241 208 213 239 144 96 119 125 104 92 94 100 106 111 102 87 78 70 54 47 21 27 100 125 143 150 146 144 166 220 201 181 179 209 293 273 266 249 239 231 236 240 233 228
233 219 207 231 248 277 230 228 223 79 72 76 74 73 68 67 78 90 103 112 103 95 83 62 60 355 8 34 7 275 187 177 192 227 232 228 221 213 226 276 270 278 279 260 233 223 227 228 228
255 231 280 287 286 277 240 202 167 108 91 82 74 64 55 58 62 72 74 83 95 87 59 31 1 346 333 333 308 292 248 187 232 281 282 260 279 275 258 273 253 256 257 256 239 236 231 228 228
278 305 267 231 250 261 254 229 218 195 180 88 56 47 32 40 35 42 53 57 59 79 56 34 315 277 283 281 253 253 212 201 216 250 275 277 285 313 279 267 261 258 255 241 236 246 241 233 232
204 226 242 252 254 257 274 270 16 154 168 187 1 44 49 31 13 15 19 17 23 51 78 203 238 255 267 258 246 241 218 210 221 229 241 245 248 250 253 260 262 263 262 256 244 250 246 239 245
270 244 207 218 253 251 266 270 33 92 118 112 30 17 33 31 11 1 2 6 3 355 334 262 251 291 288 258 252 239 222 225 235 244 244 243 246 239 240 249 254 262 267 263 255 263 255 247 247
Height
1490 1491 1493 1496 1497 1498 1493 1481 1475 1478 1480 1483 1483 1484 1487 1491 1496 1505 1505 1503 1503 1504 1505 1507 1508 1510 1511 1513 1514 1515 1517 1518 1520 1521 1522 1523 1524 1525 1526 1527 1527 1528 1529 1529 1530 1531 1531 1532 1532
1490 1492 1495 1495 1497 1500 1490 1479 1479 1481 1483 1485 1486 1487 1489 1494 1498 1501 1502 1503 1503 1504 1505 1506 1508 1510 1511 1513 1514 1516 1517 1519 1520 1521 1523 1524 1524 1525 1526 1527 1528 1529 1530 1530 1531 1532 1532 1533 1533
1490 1492 1495 1492 1492 1492 1486 1478 1479 1482 1484 1487 1488 1490 1493 1498 1500 1501 1502 1502 1503 1504 1505 1506 1508 1509 1511 1513 1514 1516 1517 1519 1520 1522 1523 1524 1525 1526 1527 1528 1529 1530 1530 1531 1532 1532 1533 1533 1534
1492 1494 1493 1492 1490 1484 1481 1480 1481 1484 1486 1488 1490 1493 1496 1500 1500 1501 1501 1502 1503 1504 1505 1506 1508 1509 1511 1512 1514 1516 1517 1519 1521 1522 1523 1524 1525 1526 1528 1528 1529 1530 1531 1531 1532 1533 1533 1534 1535
1492 1492 1492 1492 1486 1482 1480 1481 1483 1484 1487 1489 1490 1493 1498 1500 1499 1500 1501 1502 1503 1504 1505 1506 1507 1509 1511 1512 1514 1516 1517 1519 1521 1522 1523 1524 1526 1527 1528 1529 1530 1530 1531 1532 1532 1533 1534 1534 1535
1492 1489 1492 1490 1484 1481 1481 1483 1485 1486 1488 1490 1492 1494 1498 1500 1499 1500 1501 1502 1503 1504 1504 1506 1507 1509 1510 1512 1514 1515 1517 1518 1520 1522 1523 1525 1526 1527 1528 1529 1530 1531 1531 1532 1533 1533 1534 1534 1535
1491 1489 1488 1485 1483 1482 1482 1484 1486 1488 1489 1492 1493 1495 1497 1498 1499 1500 1500 1502 1503 1503 1504 1505 1507 1508 1510 1511 1513 1515 1516 1518 1520 1521 1523 1524 1525 1527 1528 1528 1530 1530 1531 1532 1533 1533 1534 1534 1535
1489 1488 1485 1484 1484 1484 1484 1486 1488 1490 1491 1493 1494 1495 1498 1498 1499 1500 1500 1501 1502 1503 1503 1504 1506 1507 1509 1511 1512 1514 1516 1518 1519 1521 1522 1524 1525 1526 1527 1528 1529 1530 1531 1532 1532 1533 1534 1534 1535
1488 1491 1489 1486 1485 1485 1485 1486 1490 1491 1492 1493 1495 1497 1497 1497 1498 1499 1500 1501 1501 1502 1503 1504 1505 1507 1508 1510 1511 1513 1515 1517 1518 1520 1521 1523 1524 1525 1526 1527 1529 1529 1530 1531 1532 1533 1533 1534 1534
1488 1491 1489 1486 1485 1486 1486 1488 1490 1492 1493 1494 1496 1497 1497 1497 1497 1498 1499 1499 1500 1501 1502 1503 1504 1506 1507 1509 1510 1512 1514 1516 1517 1519 1520 1522 1523 1524 1525 1527 1528 1529 1529 1530 1531 1532 1532 1533 1533
1487 1488 1486 1487 1487 1488 1488 1489 1490 1492 1494 1494 1495 1496 1496 1496 1497 1497 1498 1498 1499 1500 1501 1502 1503 1504 1506 1507 1509 1511 1512 1514 1516 1517 1519 1521 1522 1523 1524 1525 1526 1527 1528 1529 1530 1530 1531 1532 1532
1487 1487 1487 1488 1489 1489 1490 1490 1491 1492 1494 1494 1494 1494 1495 1495 1496 1497 1497 1498 1498 1499 1499 1500 1501 1503 1504 1506 1507 1509 1511 1512 1514 1516 1518 1519 1520 1521 1523 1524 1525 1525 1526 1527 1528 1528 1529 1530 1531
1486 1487 1488 1489 1489 1490 1491 1491 1492 1492 1493 1493 1493 1494 1494 1494 1495 1496 1497 1497 1497 1497 1498 1499 1500 1501 1502 1504 1506 1507 1509 1511 1512 1514 1516 1517 1518 1520 1521 1522 1523 1524 1524 1525 1526 1527 1528 1528 1529
1486 1487 1488 1488 1489 1489 1490 1491 1492 1490 1492 1492 1492 1492 1493 1493 1494 1495 1495 1495 1495 1495 1496 1497 1498 1499 1500 1502 1503 1505 1507 1508 1510 1512 1514 1515 1517 1518 1520 1520 1521 1522 1522 1523 1524 1525 1526 1526 1527
1486 1487 1487 1486 1487 1488 1490 1490 1489 1488 1489 1490 1490 1491 1492 1492 1493 1493 1493 1493 1494 1494 1494 1495 1496 1497 1498 1500 1501 1503 1505 1506 1508 1510 1512 1514 1515 1516 1518 1518 1519 1520 1521 1521 1522 1523 1523 1524 1524
1486 1487 1488 1485 1485 1486 1491 1491 1485 1486 1487 1487 1488 1489 1490 1491 1491 1492 1492 1492 1492 1492 1492 1493 1494 1494 1495 1497 1499 1501 1502 1504 1506 1507 1509 1512 1513 1514 1515 1516 1517 1518 1519 1519 1520 1520 1521 1521 1522
1486 1487 1485 1484 1483 1484 1487 1488 1484 1484 1484 1485 1486 1487 1488 1489 1489 1490 1490 1490 1490 1490 1491 1491 1492 1492 1493 1495 1496 1498 1500 1502 1503 1505 1507 1509 1511 1512 1513 1514 1515 1516 1516 1517 1517 1518 1518 1518 1519
1486 1484 1482 1482 1481 1483 1485 1484 1483 1483 1483 1483 1485 1485 1486 1486 1487 1488 1488 1488 1489 1489 1489 1489 1489 1490 1491 1493 1494 1496 1498 1500 1501 1503 1505 1507 1508 1509 1510 1511 1512 1513 1514 1514 1515 1515 1515 1516 1516
1481 1482 1483 1481 1480 1483 1483 1482 1481 1480 1481 1482 1483 1483 1484 1485 1486 1486 1486 1487 1486 1487 1487 1487 1487 1488 1489 1490 1492 1494 1495 1497 1499 1501 1503 1504 1505 1507 1508 1509 1510 1510 1511 1511 1512 1512 1513 1513 1513
1483 1484 1484 1482 1480 1482 1482 1480 1477 1477 1478 1479 1480 1481 1482 1483 1483 1483 1484 1484 1484 1485 1485 1485 1485 1486 1487 1488 1490 1492 1494 1495 1497 1498 1500 1502 1503 1504 1505 1506 1507 1507 1508 1509 1510 1510 1510 1510 1510
1485 1487 1487 1486 1483 1481 1484 1481 1475 1472 1474 1476 1477 1478 1480 1481 1482 1482 1482 1482 1483 1483 1483 1483 1484 1485 1485 1487 1488 1490 1491 1493 1494 1496 1498 1499 1500 1501 1502 1503 1504 1504 1505 1507 1507 1507 1507 1507 1508
1488 1486 1486 1487 1489 1489 1484 1490 1473 1469 1470 1472 1474 1476 1477 1479 1480 1481 1481 1481 1481 1481 1482 1482 1483 1483 1484 1485 1486 1487 1488 1490 1492 1494 1495 1497 1498 1498 1499 1500 1501 1501 1502 1503 1504 1504 1505 1505 1505
1488 1486 1487 1487 1489 1490 1485 1489 1477 1468 1471 1471 1472 1473 1475 1477 1478 1478 1479 1480 1480 1480 1481 1481 1482 1482 1483 1484 1484 1485 1487 1488 1490 1491 1492 1493 1494 1495 1496 1497 1498 1498 1499 1500 1501 1501 1502 1501 1502
1488 1488 1487 1487 1490 1495 1482 1485 1477 1469 1468 1469 1470 1472 1474 1475 1477 1478 1478 1479 1479 1479 1480 1480 1480 1481 1482 1483 1483 1484 1485 1486 1487 1488 1489 1490 1491 1491 1492 1494 1494 1495 1495 1496 1497 1497 1498 1498 1499
1489 1493 1497 1495 1495 1490 1474 1477 1474 1468 1466 1467 1470 1472 1473 1475 1476 1477 1477 1477 1477 1477 1478 1478 1479 1479 1480 1481 1481 1482 1483 1484 1484 1485 1486 1487 1487 1488 1489 1490 1491 1491 1492 1492 1493 1494 1494 1495 1495
1490 1491 1497 1497 1491 1483 1476 1477 1473 1468 1467 1468 1470 1472 1474 1475 1476 1476 1476 1476 1476 1476 1476 1476 1477 1477 1478 1479 1479 1480 1481 1481 1482 1483 1483 1484 1484 1484 1485 1486 1487 1487 1488 1488 1489 1490 1490 1491 1491
1489 1490 1488 1492 1488 1489 1479 1472 1472 1469 1469 1470 1472 1473 1474 1475 1476 1476 1476 1475 1475 1475 1475 1475 1475 1475 1476 1476 1477 1477 1478 1478 1479 1480 1480 1480 1481 1481 1482 1482 1483 1484 1484 1484 1485 1485 1486 1487 1487
1490 1489 1492 1493 1492 1487 1475 1471 1474 1473 1472 1472 1473 1474 1475 1475 1475 1475 1475 1475 1474 1474 1474 1474 1474 1473 1473 1474 1474 1475 1475 1476 1476 1477 1477 1477 1478 1478 1479 1479 1479 1480 1480 1481 1481 1481 1482 1482 1483
1490 1491 1491 1491 1490 1489 1483 1478 1470 1470 1471 1472 1473 1474 1474 1475 1475 1474 1474 1474 1473 1473 1472 1472 1472 1472 1471 1471 1472 1472 1473 1473 1473 1474 1474 1474 1475 1475 1475 1475 1475 1476 1476 1477 1477 1477 1477 1478 1478
1488 1489 1491 1494 1492 1488 1487 1482 1469 1469 1470 1471 1472 1473 1473 1473 1473 1473 1473 1472 1471 1471 1470 1470 1469 1469 1469 1469 1469 1469 1469 1470 1470 1470 1471 1471 1471 1471 1471 1472 1472 1472 1473 1473 1473 1473 1474 1474 1474